DW1973 Weather Reports


Display with metric or nautical units.
time (UTC)temp
F
wind
direction
speed
MPH
gust
MPH
rain 1hr
in
rain 24hr
in
rain mn
in
humidity
%
barometer
mb
20260904123435 76 169 0.0 0.0 0.00 0.00 0.00 87 1013.9
20260904122926 76 161 0.0 0.0 0.00 0.00 0.00 87 1013.8
20260904122437 76 42 0.0 0.0 0.00 0.00 0.00 86 1013.7
20260904121925 76 43 0.0 0.0 0.00 0.00 0.00 86 1013.6
20260904121430 76 43 0.0 0.0 0.00 0.00 0.00 86 1013.5
20260904120915 76 46 0.0 2.0 0.00 0.00 0.00 86 1013.4
20260904120425 76 44 0.0 2.0 0.00 0.00 0.00 86 1013.4
20260904115917 76 51 1.0 2.0 0.00 0.00 0.00 86 1013.3
20260904115425 76 55 0.0 0.0 0.00 0.00 0.00 86 1013.2
20260904115000 76 58 0.0 0.0 0.00 0.00 0.00 86 1013.3
20260904114424 76 97 0.0 0.0 0.00 0.00 0.00 86 1013.2
20260904113933 76 160 0.0 0.0 0.00 0.00 0.00 86 1013.2
20260904113444 77 169 0.0 0.0 0.00 0.00 0.00 86 1013.2
20260904112915 77 166 0.0 0.0 0.00 0.00 0.00 85 1013.2
20260904112453 77 159 0.0 2.0 0.00 0.00 0.00 85 1013.0
20260904111919 77 159 1.0 2.0 0.00 0.00 0.00 85 1012.9
20260904111427 77 151 0.0 5.0 0.00 0.00 0.00 85 1013.0
20260904110938 77 144 1.0 5.0 0.00 0.00 0.00 85 1012.8
20260904110426 77 161 3.0 5.0 0.00 0.00 0.00 84 1012.7
20260904105936 77 162 1.0 6.0 0.00 0.00 0.00 84 1012.8
20260904105445 77 165 3.0 6.0 0.00 0.00 0.00 84 1012.7
20260904104931 77 175 2.0 5.0 0.00 0.00 0.00 84 1012.6
20260904104423 77 174 1.0 4.0 0.00 0.00 0.00 84 1012.6
20260904103933 78 105 2.0 4.0 0.00 0.00 0.00 84 1012.5
20260904103420 77 111 2.0 6.0 0.00 0.00 0.00 85 1012.4
20260904103000 77 117 3.0 6.0 0.00 0.00 0.00 85 1012.5
20260904102443 77 184 2.0 6.0 0.00 0.00 0.00 85 1012.5
20260904101929 77 174 3.0 8.0 0.00 0.00 0.00 85 1012.3
20260904101420 77 172 4.0 8.0 0.00 0.00 0.00 85 1012.3
20260904100929 77 198 3.0 8.0 0.00 0.00 0.00 86 1012.3
20260904100438 77 193 3.0 6.0 0.00 0.00 0.00 86 1012.4
20260904095946 77 161 3.0 6.0 0.00 0.00 0.00 87 1012.5
20260904095415 77 173 3.0 6.0 0.00 0.00 0.00 87 1012.5
20260904094953 77 175 3.0 5.0 0.00 0.00 0.00 87 1012.6
20260904094421 77 178 3.0 4.0 0.00 0.00 0.00 87 1012.7
20260904093931 77 179 2.0 4.0 0.00 0.00 0.00 87 1012.9
20260904093436 77 175 2.0 4.0 0.00 0.00 0.00 87 1013.1
20260904092930 77 174 2.0 4.0 0.00 0.00 0.00 87 1013.1
20260904092416 77 175 1.0 3.0 0.00 0.00 0.00 87 1013.2
20260904091925 78 360 0.0 0.0 0.00 0.00 0.00 87 1013.3
20260904091437 78 134 0.0 0.0 0.00 0.00 0.00 87 1013.4
20260904090952 78 129 0.0 0.0 0.00 0.00 0.00 87 1013.3
20260904090421 78 129 0.0 0.0 0.00 0.00 0.00 87 1013.4
20260904085933 78 49 0.0 0.0 0.00 0.00 0.00 87 1013.4
20260904085421 78 51 0.0 0.0 0.00 0.00 0.00 87 1013.5
20260904084930 78 126 0.0 0.0 0.00 0.00 0.00 87 1013.4
20260904084422 78 126 0.0 0.0 0.00 0.00 0.00 87 1013.5
20260904083927 78 128 0.0 0.0 0.00 0.00 0.00 87 1013.4
20260904083416 78 360 0.0 0.0 0.00 0.00 0.00 86 1013.5
20260904082922 78 99 0.0 0.0 0.00 0.00 0.00 86 1013.4
20260904082429 78 128 0.0 0.0 0.00 0.00 0.00 86 1013.4
20260904081939 78 117 0.0 0.0 0.00 0.00 0.00 86 1013.4
20260904081433 78 130 0.0 0.0 0.00 0.00 0.00 86 1013.2
20260904080921 78 133 0.0 0.0 0.00 0.00 0.00 86 1013.1
20260904080432 78 128 0.0 1.0 0.00 0.00 0.00 86 1012.9
20260904075920 78 135 0.0 2.0 0.00 0.00 0.00 86 1013.0
20260904075430 78 119 1.0 3.0 0.00 0.00 0.00 86 1012.9
20260904074919 79 131 0.0 3.0 0.00 0.00 0.00 86 1012.8
20260904074430 79 138 0.0 3.0 0.00 0.00 0.00 86 1012.6
20260904073920 79 146 2.0 3.0 0.00 0.00 0.00 86 1012.6
20260904073430 79 175 2.0 4.0 0.00 0.00 0.00 86 1012.6
20260904072921 79 173 2.0 4.0 0.00 0.00 0.00 86 1012.4
20260904072429 79 163 2.0 5.0 0.00 0.00 0.00 85 1012.6
20260904071918 79 164 3.0 5.0 0.00 0.00 0.00 85 1012.7
20260904071446 79 360 2.0 5.0 0.00 0.00 0.00 85 1012.7
20260904070936 79 163 2.0 4.0 0.00 0.00 0.00 85 1012.7
20260904070446 79 165 2.0 5.0 0.00 0.00 0.00 85 1012.8
20260904065918 79 161 0.0 0.0 0.00 0.00 0.00 84 1012.9
20260904065426 80 166 0.0 0.0 0.00 0.00 0.00 84 1012.9
20260904064932 80 161 0.0 0.0 0.00 0.00 0.00 84 1013.1
20260904064424 80 161 0.0 0.0 0.00 0.00 0.00 84 1013.1
20260904063933 80 160 0.0 0.0 0.00 0.00 0.00 83 1013.4
20260904063440 80 157 0.0 0.0 0.00 0.00 0.00 83 1013.4
20260904062931 80 167 0.0 0.0 0.00 0.00 0.00 83 1013.6
20260904062419 80 155 0.0 0.0 0.00 0.00 0.00 83 1013.6
20260904061923 80 360 0.0 0.0 0.00 0.00 0.00 83 1013.7
20260904061431 80 192 0.0 0.0 0.00 0.00 0.00 83 1013.7
20260904060920 80 192 0.0 0.0 0.00 0.00 0.00 83 1013.8
20260904060428 81 192 0.0 0.0 0.00 0.00 0.00 83 1013.8
20260904055920 81 192 0.0 0.0 0.00 0.00 0.00 82 1013.9
20260904055427 81 192 0.0 0.0 0.00 0.00 0.00 82 1013.9
20260904054925 81 192 0.0 0.0 0.00 0.00 0.00 82 1013.9
20260904054417 81 192 0.0 0.0 0.00 0.00 0.00 82 1013.9
20260904053925 81 192 0.0 0.0 0.00 0.00 0.00 82 1013.9
20260904053432 81 192 0.0 1.0 0.00 0.00 0.00 82 1013.9
20260904052925 81 192 0.0 1.0 0.00 0.00 0.00 81 1013.9
20260904052415 82 192 0.0 2.0 0.00 0.00 0.00 81 1013.9
20260904051921 82 192 0.0 3.0 0.00 0.00 0.00 81 1013.9
20260904051450 82 192 2.0 3.0 0.00 0.00 0.00 81 1013.8
20260904050919 82 192 2.0 3.0 0.00 0.00 0.00 81 1013.7
20260904050428 82 154 1.0 2.0 0.00 0.00 0.00 82 1013.6
20260904045919 82 154 0.0 2.0 0.00 0.00 0.00 82 1013.6
20260904045429 82 154 0.0 2.0 0.00 0.00 0.00 82 1013.8
20260904044935 82 154 0.0 2.0 0.00 0.00 0.00 81 1013.7
20260904044425 82 154 0.0 2.0 0.00 0.00 0.00 81 1013.7
20260904043933 82 154 1.0 3.0 0.00 0.00 0.00 81 1013.7
20260904043418 83 154 1.0 3.0 0.00 0.00 0.00 81 1013.7
20260904042926 83 154 1.0 3.0 0.00 0.00 0.00 81 1013.7
20260904042415 83 154 0.0 2.0 0.00 0.00 0.00 81 1013.7
20260904041925 83 154 0.0 3.0 0.00 0.00 0.00 81 1013.8
20260904041432 83 154 2.0 3.0 0.00 0.00 0.00 81 1013.8
20260904040940 83 154 2.0 3.0 0.00 0.00 0.00 82 1013.8
20260904040449 83 154 2.0 2.0 0.00 0.00 0.00 82 1013.8
20260904035937 83 154 1.0 2.0 0.00 0.00 0.00 82 1013.8
20260904035425 83 154 1.0 3.0 0.00 0.00 0.00 81 1013.8
20260904035003 83 154 1.0 3.0 0.00 0.00 0.00 81 1013.8
20260904034425 83 154 0.0 2.0 0.00 0.00 0.00 81 1013.9
20260904033932 83 154 0.0 3.0 0.00 0.00 0.00 81 1014.0
20260904033420 83 154 1.0 3.0 0.00 0.00 0.00 82 1013.9
20260904032930 83 154 1.0 3.0 0.00 0.00 0.00 82 1013.9
20260904032419 83 133 0.0 0.0 0.00 0.00 0.00 82 1013.9
20260904031926 84 133 0.0 0.0 0.00 0.00 0.00 82 1014.0
20260904031432 84 133 0.0 0.0 0.00 0.00 0.00 82 1014.0
20260904030919 84 133 0.0 0.0 0.00 0.00 0.00 82 1013.9
20260904030428 84 133 0.0 0.0 0.00 0.00 0.00 82 1014.0
20260904025919 84 133 0.0 0.0 0.00 0.00 0.00 81 1014.0
20260904025426 84 133 0.0 0.0 0.00 0.00 0.00 81 1013.9
20260904024915 84 133 0.0 0.0 0.00 0.00 0.00 81 1014.0
20260904024428 84 132 0.0 0.0 0.00 0.00 0.00 81 1014.0
20260904023916 84 132 0.0 0.0 0.00 0.00 0.00 80 1014.0
20260904023426 84 132 0.0 0.0 0.00 0.00 0.00 80 1013.9
20260904022918 84 130 0.0 0.0 0.00 0.00 0.00 80 1013.8
20260904022434 85 360 0.0 0.0 0.00 0.00 0.00 80 1013.8
20260904021923 85 96 0.0 0.0 0.00 0.00 0.00 79 1013.8
20260904021435 85 96 0.0 0.0 0.00 0.00 0.00 79 1013.8
20260904020937 85 96 0.0 0.0 0.00 0.00 0.00 79 1013.8
20260904020425 85 96 0.0 0.0 0.00 0.00 0.00 79 1013.8
20260904015917 85 96 0.0 0.0 0.00 0.00 0.00 79 1013.8
20260904015424 85 96 0.0 0.0 0.00 0.00 0.00 79 1013.8
20260904014932 85 95 0.0 0.0 0.00 0.00 0.00 78 1013.7
20260904014424 84 88 0.0 0.0 0.00 0.00 0.00 78 1013.7
20260904013934 84 88 0.0 0.0 0.00 0.00 0.00 78 1013.6
20260904013424 84 88 0.0 0.0 0.00 0.00 0.00 77 1013.4
20260904012955 85 87 0.0 1.0 0.00 0.00 0.00 77 1013.3
20260904012422 85 88 0.0 2.0 0.00 0.00 0.00 76 1013.2
20260904011933 85 88 1.0 2.0 0.00 0.00 0.00 76 1012.9
20260904011426 85 88 0.0 2.0 0.00 0.00 0.00 76 1012.9
20260904010931 85 88 0.0 2.0 0.00 0.00 0.00 75 1012.7
20260904010504 85 88 0.0 4.0 0.00 0.00 0.00 75 1012.6
20260904005954 86 88 2.0 6.0 0.00 0.00 0.00 75 1012.5
20260904005442 86 86 4.0 7.0 0.00 0.00 0.00 74 1012.3
20260904004929 86 86 2.0 7.0 0.00 0.00 0.00 74 1012.2
20260904004423 87 88 3.0 6.0 0.00 0.00 0.00 74 1012.1
20260904003932 87 87 3.0 6.0 0.00 0.00 0.00 73 1012.2
20260904003417 87 94 1.0 3.0 0.00 0.00 0.00 73 1012.3
20260904002926 88 95 2.0 3.0 0.00 0.00 0.00 72 1012.1
20260904002415 88 97 1.0 3.0 0.00 0.00 0.00 70 1012.2
20260904001923 89 150 0.0 0.0 0.00 0.00 0.00 70 1012.1
20260904001434 89 205 0.0 0.0 0.00 0.00 0.00 69 1012.2
20260904000936 89 205 0.0 0.0 0.00 0.00 0.00 68 1012.2
20260904000422 89 205 0.0 0.0 0.00 0.00 0.00 67 1012.2
20260903235933 90 205 0.0 2.0 0.00 0.00 0.00 67 1012.2
20260903235441 90 205 0.0 2.0 0.00 0.00 0.00 66 1012.3
20260903234948 90 205 2.0 2.0 0.00 0.00 0.00 66 1012.3
20260903234441 90 205 0.0 0.0 0.00 0.00 0.00 65 1012.3
20260903233949 90 205 0.0 0.0 0.00 0.00 0.00 65 1012.2
20260903233417 90 205 0.0 0.0 0.00 0.00 0.00 65 1012.2
20260903232927 90 205 0.0 0.0 0.00 0.00 0.00 64 1012.3
20260903232417 91 205 0.0 0.0 0.00 0.00 0.00 63 1012.3
20260903231955 91 205 0.0 2.0 0.00 0.00 0.00 63 1012.3
20260903231421 91 205 0.0 4.0 0.00 0.00 0.00 63 1012.4
20260903230928 91 205 2.0 4.0 0.00 0.00 0.00 62 1012.5
20260903230437 91 205 1.0 3.0 0.00 0.00 0.00 63 1012.5
20260903225928 91 205 1.0 5.0 0.00 0.00 0.00 63 1012.6
20260903225435 91 203 2.0 6.0 0.00 0.00 0.00 63 1012.6
20260903224920 91 199 3.0 6.0 0.00 0.00 0.00 63 1012.6
20260903224431 91 214 3.0 5.0 0.00 0.00 0.00 64 1012.5
20260903223920 91 206 1.0 3.0 0.00 0.00 0.00 64 1012.6
20260903223430 91 206 1.0 3.0 0.00 0.00 0.00 64 1012.6
20260903222922 91 206 1.0 3.0 0.00 0.00 0.00 63 1012.7
20260903222453 91 206 1.0 4.0 0.00 0.00 0.00 63 1012.8
20260903221922 91 207 1.0 5.0 0.00 0.00 0.00 62 1012.9
20260903221415 92 205 1.0 3.0 0.00 0.00 0.00 62 1012.9
20260903220947 92 196 0.0 2.0 0.00 0.00 0.00 62 1012.8
20260903220431 92 196 0.0 3.0 0.00 0.00 0.00 62 1012.8
20260903215944 92 197 2.0 6.0 0.00 0.00 0.00 61 1012.8
20260903215431 92 205 3.0 6.0 0.00 0.00 0.00 60 1012.9
20260903214918 92 185 2.0 6.0 0.00 0.00 0.00 62 1012.9
20260903214428 92 161 1.0 5.0 0.00 0.00 0.00 62 1012.9
20260903213937 92 200 2.0 5.0 0.00 0.00 0.00 61 1013.0
20260903213445 92 231 3.0 6.0 0.00 0.00 0.00 61 1012.9
20260903212934 92 209 3.0 5.0 0.00 0.00 0.00 61 1012.9
20260903212435 92 211 3.0 5.0 0.00 0.00 0.00 63 1012.9
20260903211944 92 221 3.0 5.0 0.00 0.00 0.00 63 1012.9
20260903211425 92 210 2.0 5.0 0.00 0.00 0.00 62 1012.9
20260903210935 92 211 3.0 5.0 0.00 0.00 0.00 63 1012.9
20260903210422 91 187 3.0 7.0 0.00 0.00 0.00 64 1012.8
20260903205916 91 189 3.0 7.0 0.00 0.00 0.00 62 1012.8
20260903205425 91 186 3.0 5.0 0.00 0.00 0.00 65 1012.9
20260903204933 91 192 2.0 5.0 0.00 0.00 0.00 63 1012.9
20260903204419 90 202 3.0 5.0 0.00 0.00 0.00 66 1012.9
20260903203926 90 188 2.0 6.0 0.00 0.00 0.00 67 1013.0
20260903203434 90 202 4.0 6.0 0.00 0.00 0.00 66 1013.1
20260903202926 90 142 3.0 5.0 0.00 0.00 0.00 66 1013.1
20260903202417 89 201 3.0 7.0 0.00 0.00 0.00 67 1013.2
20260903201923 90 198 4.0 7.0 0.00 0.00 0.00 66 1013.2
20260903201430 90 139 3.0 5.0 0.00 0.00 0.00 68 1013.3
20260903200920 89 215 3.0 7.0 0.00 0.00 0.00 68 1013.4
20260903200430 89 130 4.0 8.0 0.00 0.00 0.00 66 1013.5
20260903195948 89 140 2.0 8.0 0.00 0.00 0.00 68 1013.6
20260903195416 89 120 4.0 7.0 0.00 0.00 0.00 69 1013.7
20260903194926 89 130 4.0 7.0 0.00 0.00 0.00 68 1013.8
20260903194416 88 139 2.0 6.0 0.00 0.00 0.00 69 1013.8
20260903193953 88 126 4.0 8.0 0.00 0.00 0.00 69 1013.9
20260903193420 88 141 3.0 8.0 0.00 0.00 0.00 68 1014.0
20260903192933 88 153 2.0 6.0 0.00 0.00 0.00 69 1014.0
20260903192420 88 101 1.0 6.0 0.00 0.00 0.00 68 1014.1
20260903191930 88 112 2.0 6.0 0.00 0.00 0.00 68 1014.2
20260903191423 88 104 2.0 6.0 0.00 0.00 0.00 68 1014.2
20260903190913 88 29 1.0 3.0 0.00 0.00 0.00 69 1014.2
20260903190422 87 109 0.0 4.0 0.00 0.00 0.00 68 1014.3
20260903185926 87 11 2.0 6.0 0.00 0.00 0.00 69 1014.4
20260903185413 87 102 1.0 8.0 0.00 0.00 0.00 69 1014.3
20260903184921 87 88 3.0 8.0 0.00 0.00 0.00 68 1014.4
20260903184413 87 15 1.0 9.0 0.00 0.00 0.00 69 1014.5
20260903183949 87 61 2.0 9.0 0.00 0.00 0.00 69 1014.6
20260903183416 87 20 2.0 8.0 0.00 0.00 0.00 69 1014.5
20260903182928 87 341 3.0 8.0 0.00 0.00 0.00 68 1014.6
20260903182417 87 323 1.0 6.0 0.00 0.00 0.00 70 1014.7
20260903181926 87 30 2.0 8.0 0.00 0.00 0.00 70 1014.7
20260903181418 87 98 1.0 8.0 0.00 0.00 0.00 70 1014.8
20260903180931 87 30 1.0 9.0 0.00 0.00 0.00 70 1014.9
20260903180436 87 52 1.0 9.0 0.00 0.00 0.00 70 1014.8
20260903175942 87 338 2.0 5.0 0.00 0.00 0.00 70 1014.8
20260903175428 87 40 2.0 5.0 0.00 0.00 0.00 70 1014.9
20260903174917 87 30 2.0 3.0 0.00 0.00 0.00 70 1014.8
20260903174427 87 10 1.0 6.0 0.00 0.00 0.00 70 1015.1
20260903173913 87 315 3.0 8.0 0.00 0.00 0.00 69 1015.1
20260903173422 87 30 3.0 9.0 0.00 0.00 0.00 69 1015.1
20260903172935 87 29 3.0 9.0 0.00 0.00 0.00 68 1015.2
20260903172434 87 109 2.0 8.0 0.00 0.00 0.00 69 1015.2
20260903171943 87 46 3.0 9.0 0.00 0.00 0.00 68 1015.3
20260903171447 87 37 3.0 9.0 0.00 0.00 0.00 69 1015.2
20260903170932 87 136 2.0 6.0 0.00 0.00 0.00 70 1015.0
20260903170420 87 330 3.0 10.0 0.00 0.00 0.00 68 1015.1
20260903165959 87 345 2.0 10.0 0.00 0.00 0.00 69 1015.1
20260903165446 86 14 3.0 6.0 0.00 0.00 0.00 69 1015.0
20260903164934 86 306 2.0 6.0 0.00 0.00 0.00 69 1015.2
20260903164422 85 34 2.0 10.0 0.00 0.00 0.00 69 1015.2
20260903163930 85 298 3.0 10.0 0.00 0.00 0.00 69 1015.3
20260903163417 85 5 4.0 10.0 0.00 0.00 0.00 70 1015.3
20260903162931 85 340 4.0 8.0 0.00 0.00 0.00 72 1015.1
20260903162420 86 294 4.0 9.0 0.00 0.00 0.00 72 1015.1
20260903161929 87 332 4.0 9.0 0.00 0.00 0.00 72 1014.9
20260903161436 87 340 2.0 4.0 0.00 0.00 0.00 72 1014.9
20260903160949 87 305 1.0 3.0 0.00 0.00 0.00 72 1014.9
20260903160416 87 260 1.0 3.0 0.00 0.00 0.00 71 1014.6
20260903155929 87 219 1.0 3.0 0.00 0.00 0.00 71 1014.2
20260903155418 87 219 1.0 6.0 0.00 0.00 0.00 71 1014.2
20260903154929 87 223 2.0 6.0 0.00 0.00 0.00 71 1014.2
20260903154439 87 199 2.0 5.0 0.00 0.00 0.00 71 1014.2
20260903153928 86 237 2.0 5.0 0.00 0.00 0.00 72 1014.2
20260903153434 86 271 1.0 6.0 0.00 0.00 0.00 72 1014.2
20260903152952 86 202 1.0 3.0 0.00 0.00 0.00 72 1014.2
20260903152420 86 207 1.0 4.0 0.00 0.00 0.00 73 1014.1
20260903151924 85 211 2.0 5.0 0.00 0.00 0.00 73 1014.1
20260903151416 85 186 3.0 6.0 0.00 0.00 0.00 73 1014.1
20260903150925 85 213 2.0 7.0 0.00 0.00 0.00 74 1014.1
20260903150413 85 207 4.0 7.0 0.00 0.00 0.00 74 1014.2
20260903145924 85 234 4.0 7.0 0.00 0.00 0.00 74 1014.2
20260903145432 85 188 3.0 6.0 0.00 0.00 0.00 74 1014.1
20260903144942 84 360 2.0 6.0 0.00 0.00 0.00 75 1014.1
20260903144441 84 194 2.0 5.0 0.00 0.00 0.00 75 1014.2
20260903143928 84 360 3.0 8.0 0.00 0.00 0.00 75 1014.3
20260903143416 84 201 2.0 8.0 0.00 0.00 0.00 75 1014.3
20260903142927 84 178 3.0 6.0 0.00 0.00 0.00 75 1014.2
20260903142414 83 173 2.0 6.0 0.00 0.00 0.00 76 1014.2
20260903141922 83 190 2.0 8.0 0.00 0.00 0.00 77 1014.2
20260903141428 83 161 4.0 8.0 0.00 0.00 0.00 76 1014.2
20260903140916 83 194 3.0 8.0 0.00 0.00 0.00 76 1014.1
20260903140423 83 177 4.0 8.0 0.00 0.00 0.00 77 1014.1
20260903135916 82 200 3.0 6.0 0.00 0.00 0.00 77 1014.0
20260903135426 82 209 2.0 6.0 0.00 0.00 0.00 77 1014.1
20260903134915 82 187 2.0 6.0 0.00 0.00 0.00 78 1014.0
20260903134425 82 220 2.0 4.0 0.00 0.00 0.00 78 1014.2
20260903133932 82 167 2.0 4.0 0.00 0.00 0.00 79 1014.2
20260903133419 81 230 2.0 4.0 0.00 0.00 0.00 79 1014.2
20260903133000 81 198 1.0 6.0 0.00 0.00 0.00 80 1014.1
20260903132447 81 200 1.0 6.0 0.00 0.00 0.00 80 1014.2
20260903131928 80 166 2.0 5.0 0.00 0.00 0.00 81 1014.2
20260903131440 80 181 2.0 3.0 0.00 0.00 0.00 81 1014.2
20260903130929 80 176 2.0 4.0 0.00 0.00 0.00 82 1014.3
20260903130419 79 173 2.0 4.0 0.00 0.00 0.00 82 1014.2
20260903125929 79 186 1.0 3.0 0.00 0.00 0.00 83 1014.3
20260903125415 79 186 1.0 3.0 0.00 0.00 0.00 83 1014.2
20260903124922 79 188 2.0 3.0 0.00 0.00 0.00 84 1014.2
20260903124416 78 188 1.0 3.0 0.00 0.00 0.00 84 1014.2
20260903123931 78 184 1.0 3.0 0.00 0.00 0.00 84 1014.3